Location: Noordwijk
(52.2400°N, 4.4500°E)
Time: 10:07:02
(UTC+00:00)

VELOX 1 - Visible Passes

Search period start: 30 November 2022 00:00
Search period end: 10 December 2022 00:00
Orbit: 622 x 637 km, 98.4° (Epoch: 29 November)

Date Brightness Start Highest point End Pass type
(mag) Time Alt. Az. Time Alt. Az. Time Alt. Az.
30 Nov ? 03:43:28 10° SE 03:46:06 28° E 03:46:06 28° E visible
30 Nov ? 05:19:41 10° SSW 05:23:27 34° WSW 05:23:27 34° WSW visible
30 Nov ? 17:03:49 18° NE 17:06:04 27° E 17:09:47 10° SSE visible
30 Nov ? 18:41:11 32° NNW 18:42:28 41° WNW 18:46:32 10° SW visible
01 Dec ? 04:03:19 10° SE 04:06:25 39° ESE 04:06:25 39° ESE visible
01 Dec ? 05:40:33 10° SW 05:43:47 23° W 05:43:47 23° W visible
01 Dec ? 17:24:22 25° NE 17:26:26 41° E 17:30:32 10° S visible
01 Dec ? 19:01:44 26° NW 19:02:33 28° WNW 19:06:16 10° WSW visible
02 Dec ? 04:23:20 10° SSE 04:26:46 53° SE 04:26:46 53° SE visible
02 Dec ? 06:01:52 10° SW 06:04:07 15° W 06:04:07 15° W visible
02 Dec ? 17:44:54 33° NNE 17:46:43 63° ESE 17:51:01 10° S visible
02 Dec ? 19:22:15 20° NW 19:22:35 20° WNW 19:25:47 10° WSW visible
03 Dec ? 03:09:10 10° E 03:09:44 12° E 03:09:44 12° E visible
03 Dec ? 04:43:33 10° S 04:47:05 55° SSW 04:47:05 55° SSW visible
03 Dec ? 16:28:03 10° ENE 16:30:05 13° E 16:32:11 10° ESE visible
03 Dec ? 18:05:25 40° NNE 18:06:57 86° WNW 18:11:18 10° SSW visible
03 Dec ? 19:42:47 15° WNW 19:42:47 15° WNW 19:44:57 10° W visible
04 Dec ? 03:28:34 10° ESE 03:30:04 18° E 03:30:04 18° E visible
04 Dec ? 05:03:58 10° S 05:07:25 42° SW 05:07:25 42° SW visible
04 Dec ? 16:48:34 15° ENE 16:50:32 20° E 16:53:43 10° SE visible
04 Dec ? 18:25:55 41° NNW 18:27:08 57° WNW 18:31:23 10° SSW visible
05 Dec ? 03:48:13 10° SE 03:50:24 25° ESE 03:50:24 25° ESE visible
05 Dec ? 05:24:36 10° SSW 05:27:45 29° WSW 05:27:45 29° WSW visible
05 Dec ? 17:09:03 21° NE 17:10:54 29° E 17:14:42 10° SSE visible
05 Dec ? 18:46:25 35° NW 18:47:15 38° WNW 18:51:16 10° SW visible
06 Dec ? 04:08:05 10° SE 04:10:44 34° SE 04:10:44 34° SE visible
06 Dec ? 05:45:32 10° SW 05:48:05 20° WSW 05:48:05 20° WSW visible
06 Dec ? 17:29:32 30° NE 17:31:14 44° E 17:35:23 10° S visible
06 Dec ? 19:06:54 26° NW 19:07:18 27° WNW 19:10:56 10° WSW visible
07 Dec ? 04:28:07 10° SSE 04:31:03 42° SSE 04:31:03 42° SSE visible
07 Dec ? 06:06:56 10° WSW 06:08:24 14° WSW 06:08:24 14° WSW visible
07 Dec ? 17:50:01 40° NNE 17:51:29 68° ESE 17:55:49 10° S visible
07 Dec ? 19:27:23 19° WNW 19:27:23 19° WNW 19:30:22 10° WSW visible
08 Dec ? 03:13:46 10° ESE 03:14:02 11° E 03:14:02 11° E visible
08 Dec ? 04:48:21 10° S 04:51:23 43° S 04:51:23 43° S visible
08 Dec ? 16:33:07 12° ENE 16:34:51 14° E 16:37:14 10° ESE visible
08 Dec ? 18:10:29 47° N 18:11:42 80° WNW 18:16:02 10° SSW visible
08 Dec ? 19:47:51 13° WNW 19:47:51 13° WNW 19:49:26 10° W visible
09 Dec ? 03:33:12 10° ESE 03:34:22 16° ESE 03:34:22 16° ESE visible
09 Dec ? 05:08:47 10° S 05:11:44 35° SW 05:11:44 35° SW visible
09 Dec ? 16:53:35 17° ENE 16:55:17 21° E 16:58:36 10° SE visible
09 Dec ? 18:30:56 44° NNW 18:31:51 53° WNW 18:36:04 10° SW visible
